KE9LZ Weather Reports


Display with metric or nautical units.
time (UTC)temp
F
wind
direction
speed
MPH
gust
MPH
rain 1hr
in
rain 24hr
in
rain mn
in
humidity
%
barometer
mb
20210622235004 70 324 3.0 9.0 0.00 0.00 0.00 34 1013.0
20210622234003 70 262 2.0 6.0 0.00 0.00 0.00 36 1013.0
20210622233004 70 267 2.0 7.0 0.00 0.00 0.00 34 1012.9
20210622232004 70 290 2.0 9.0 0.00 0.00 0.00 35 1013.0
20210622231004 70 285 3.0 10.0 0.00 0.00 0.00 35 1012.9
20210622230004 70 273 5.0 10.0 0.00 0.00 0.00 34 1012.9
20210622225004 70 281 3.0 10.0 0.00 0.00 0.00 36 1012.8
20210622224004 70 233 2.0 8.0 0.00 0.00 0.00 35 1013.0
20210622223004 70 287 4.0 10.0 0.00 0.00 0.00 36 1012.9
20210622222004 71 267 3.0 12.0 0.00 0.00 0.00 35 1013.2
20210622221004 70 256 1.0 8.0 0.00 0.00 0.00 37 1013.1
20210622220005 70 230 3.0 12.0 0.00 0.00 0.00 34 1013.1
20210622215005 69 336 5.0 9.0 0.00 0.00 0.00 37 1012.9
20210622214004 70 266 3.0 13.0 0.00 0.00 0.00 35 1013.1
20210622213004 70 283 3.0 7.0 0.00 0.00 0.00 35 1013.0
20210622212004 70 240 3.0 12.0 0.00 0.00 0.00 35 1012.8
20210622211004 68 302 3.0 15.0 0.00 0.00 0.00 36 1012.8
20210622210005 70 281 3.0 12.0 0.00 0.00 0.00 35 1012.8
20210622205005 70 290 4.0 13.0 0.00 0.00 0.00 33 1012.9
20210622204004 71 348 4.0 9.0 0.00 0.00 0.00 33 1012.9
20210622203005 70 283 3.0 12.0 0.00 0.00 0.00 34 1012.6
20210622202004 70 292 6.0 10.0 0.00 0.00 0.00 34 1012.9
20210622201004 70 271 4.0 9.0 0.00 0.00 0.00 34 1012.9
20210622200007 70 270 3.0 12.0 0.00 0.00 0.00 37 1012.9
20210622195005 69 325 5.0 15.0 0.00 0.00 0.00 37 1013.0
20210622194004 69 256 6.0 18.0 0.00 0.00 0.00 35 1013.0
20210622193004 67 285 4.0 12.0 0.00 0.00 0.00 39 1012.9
20210622192005 68 335 5.0 10.0 0.00 0.00 0.00 38 1013.0
20210622191004 68 309 5.0 20.0 0.00 0.00 0.00 37 1013.1
20210622190004 67 289 4.0 13.0 0.00 0.00 0.00 42 1012.9
20210622185005 66 286 3.0 9.0 0.00 0.00 0.00 42 1013.1
20210622184004 66 311 5.0 15.0 0.00 0.00 0.00 40 1013.3
20210622183005 66 233 3.0 13.0 0.00 0.00 0.00 42 1013.5
20210622182004 66 273 6.0 17.0 0.00 0.00 0.00 41 1013.4
20210622181004 67 264 4.0 10.0 0.00 0.00 0.00 43 1013.3
20210622180004 67 299 5.0 13.0 0.00 0.00 0.00 40 1013.2
20210622175005 65 322 3.0 14.0 0.00 0.00 0.00 44 1013.6
20210622174004 66 281 6.0 12.0 0.00 0.00 0.00 42 1013.5
20210622173005 67 211 5.0 10.0 0.00 0.00 0.00 40 1013.5
20210622172004 65 273 6.0 14.0 0.00 0.00 0.00 42 1013.5
20210622171005 65 280 3.0 13.0 0.00 0.00 0.00 43 1013.5
20210622170004 63 282 5.0 12.0 0.00 0.00 0.00 44 1013.5
20210622165004 63 302 6.0 16.0 0.00 0.00 0.00 45 1013.8
20210622164004 63 249 5.0 12.0 0.00 0.00 0.00 47 1013.7
20210622163004 63 263 5.0 16.0 0.00 0.00 0.00 45 1013.6
20210622162021 64 230 3.0 13.0 0.00 0.00 0.00 46 1013.5
20210622161005 64 245 6.0 16.0 0.00 0.00 0.00 48 1013.8
20210622160056 63 251 2.0 13.0 0.00 0.00 0.00 49 1013.5
20210622155007 64 273 3.0 12.0 0.00 0.00 0.00 49 1013.6
20210622154004 64 281 5.0 15.0 0.00 0.00 0.00 48 1013.7
20210622153004 64 297 2.0 12.0 0.00 0.00 0.00 50 1013.7
20210622152004 64 270 3.0 12.0 0.00 0.00 0.00 51 1014.0
20210622151004 64 292 5.0 10.0 0.00 0.00 0.00 53 1013.9
20210622150004 63 306 2.0 8.0 0.00 0.00 0.00 55 1013.9
20210622145004 63 304 3.0 8.0 0.00 0.00 0.00 54 1014.1
20210622144003 62 7 2.0 12.0 0.00 0.00 0.00 57 1014.1
20210622143004 61 319 4.0 13.0 0.00 0.00 0.00 59 1013.9
20210622142004 60 296 3.0 12.0 0.00 0.00 0.00 60 1014.2
20210622141004 60 285 3.0 7.0 0.00 0.00 0.00 63 1014.2
20210622140047 58 312 2.0 6.0 0.00 0.00 0.00 69 1014.2
20210622135004 56 242 1.0 8.0 0.00 0.00 0.00 72 1014.2
20210622134004 56 242 2.0 8.0 0.00 0.00 0.00 73 1014.0
20210622133004 55 235 3.0 9.0 0.00 0.00 0.00 74 1013.9
20210622132004 55 203 3.0 6.0 0.00 0.00 0.00 76 1014.0
20210622131004 54 229 1.0 5.0 0.00 0.00 0.00 77 1013.8
20210622130005 53 213 1.0 5.0 0.00 0.00 0.00 78 1013.7
20210622125005 53 240 1.0 7.0 0.00 0.00 0.00 79 1013.7
20210622124004 53 256 2.0 8.0 0.00 0.00 0.00 79 1013.7
20210622123006 52 193 2.0 7.0 0.00 0.00 0.00 80 1013.6
20210622122004 52 220 2.0 6.0 0.00 0.00 0.00 80 1013.4
20210622121004 52 210 1.0 5.0 0.00 0.00 0.00 79 1013.4
20210622120005 52 206 1.0 5.0 0.00 0.00 0.00 79 1013.2
20210622115004 51 188 2.0 5.0 0.00 0.00 0.00 80 1013.2
20210622114005 51 210 1.0 3.0 0.00 0.00 0.00 79 1013.2
20210622113004 51 211 1.0 3.0 0.00 0.00 0.00 79 1013.1
20210622112005 51 203 1.0 3.0 0.00 0.00 0.00 79 1012.9
20210622111005 51 222 0.0 2.0 0.00 0.00 0.00 79 1013.1
20210622110004 51 202 1.0 2.0 0.00 0.00 0.00 78 1012.9
20210622105004 51 192 2.0 3.0 0.00 0.00 0.00 78 1012.8
20210622104004 51 212 2.0 3.0 0.00 0.00 0.00 77 1012.7
20210622103005 51 200 2.0 5.0 0.00 0.00 0.00 78 1012.6
20210622102004 51 199 1.0 2.0 0.00 0.00 0.00 78 1012.4
20210622101004 50 205 0.0 1.0 0.00 0.00 0.00 77 1012.6
20210622100005 50 205 0.0 2.0 0.00 0.00 0.00 77 1012.3
20210622095004 50 201 1.0 3.0 0.00 0.00 0.00 77 1012.2
20210622094004 50 203 1.0 3.0 0.00 0.00 0.00 77 1012.2
20210622093006 50 217 0.0 2.0 0.00 0.00 0.00 77 1012.1
20210622092005 50 196 1.0 2.0 0.00 0.00 0.00 77 1012.0
20210622091005 50 193 0.0 1.0 0.00 0.00 0.00 76 1012.0
20210622090006 50 209 0.0 2.0 0.00 0.00 0.00 77 1012.0
20210622085005 50 210 0.0 3.0 0.00 0.00 0.00 77 1012.2
20210622084004 50 190 1.0 3.0 0.00 0.00 0.00 77 1012.1
20210622083005 49 165 1.0 5.0 0.00 0.00 0.00 77 1011.9
20210622082004 49 195 0.0 2.0 0.00 0.00 0.00 76 1012.1
20210622081005 49 212 0.0 1.0 0.00 0.00 0.00 76 1012.0
20210622080006 49 211 0.0 2.0 0.00 0.00 0.00 76 1012.2
20210622075005 50 358 1.0 1.0 0.00 0.00 0.00 76 1012.2
20210622074005 50 4 0.0 1.0 0.00 0.00 0.00 75 1012.0
20210622073005 49 2 0.0 2.0 0.00 0.00 0.00 75 1012.2
20210622072005 49 312 1.0 1.0 0.00 0.00 0.00 76 1012.1
20210622071005 49 311 0.0 1.0 0.00 0.00 0.00 76 1012.4
20210622070005 49 311 0.0 1.0 0.00 0.00 0.00 76 1012.5
20210622065005 48 311 0.0 1.0 0.00 0.00 0.00 75 1012.5
20210622064005 48 311 0.0 0.0 0.00 0.00 0.00 74 1012.5
20210622063004 49 311 0.0 1.0 0.00 0.00 0.00 74 1012.5
20210622062005 49 304 0.0 0.0 0.00 0.00 0.00 74 1012.4
20210622061005 49 304 0.0 0.0 0.00 0.00 0.00 73 1012.5
20210622060005 49 304 0.0 0.0 0.00 0.00 0.00 73 1012.5
20210622055005 49 304 0.0 0.0 0.00 0.00 0.00 73 1012.7
20210622054004 49 304 0.0 0.0 0.00 0.00 0.00 73 1012.6
20210622053005 49 304 0.0 0.0 0.00 0.00 0.00 71 1012.5
20210622052004 50 304 0.0 0.0 0.00 0.00 0.00 71 1012.8
20210622051012 50 304 0.0 0.0 0.00 0.00 0.00 70 1012.7
20210622050008 51 304 0.0 0.0 0.00 0.01 0.00 69 1012.8
20210622045005 51 304 0.0 0.0 0.00 0.02 0.01 69 1012.7
20210622044005 51 304 0.0 0.0 0.00 0.02 0.01 69 1012.7
20210622043005 51 304 0.0 0.0 0.00 0.02 0.01 69 1012.6
20210622042005 51 304 0.0 1.0 0.00 0.02 0.01 69 1012.7
20210622041005 51 304 0.0 0.0 0.00 0.02 0.01 67 1012.6
20210622040005 51 304 0.0 0.0 0.00 0.02 0.01 65 1012.5
20210622035004 52 304 0.0 0.0 0.00 0.02 0.01 64 1012.6
20210622034004 53 304 0.0 0.0 0.00 0.02 0.01 62 1012.7
20210622033005 54 304 0.0 1.0 0.00 0.02 0.01 60 1012.7
20210622032004 54 303 0.0 1.0 0.00 0.02 0.01 59 1012.6
20210622031005 55 303 0.0 0.0 0.00 0.02 0.01 59 1012.7
20210622030005 55 303 0.0 0.0 0.00 0.02 0.01 58 1012.6
20210622025004 55 303 0.0 0.0 0.00 0.02 0.01 56 1012.6
20210622024004 56 303 0.0 0.0 0.00 0.02 0.01 55 1012.6
20210622023004 56 303 0.0 0.0 0.00 0.02 0.01 54 1012.4
20210622022004 57 303 0.0 0.0 0.00 0.02 0.01 52 1012.3
20210622021004 57 303 0.0 0.0 0.00 0.02 0.01 50 1012.2
20210622020004 58 303 0.0 0.0 0.00 0.02 0.01 48 1012.0
20210622015004 59 304 0.0 2.0 0.00 0.02 0.01 47 1011.9
20210622014004 60 313 1.0 5.0 0.00 0.02 0.01 46 1011.8
20210622013004 61 305 0.0 5.0 0.00 0.02 0.01 45 1011.5
20210622012004 61 293 2.0 6.0 0.00 0.02 0.01 44 1011.4
20210622011005 62 291 1.0 7.0 0.00 0.02 0.01 43 1011.5
20210622010003 62 14 2.0 6.0 0.00 0.02 0.01 42 1011.6
20210622005004 63 30 2.0 8.0 0.00 0.02 0.01 41 1011.4
20210622004004 63 311 3.0 10.0 0.00 0.02 0.01 41 1011.5
20210622003004 63 339 3.0 7.0 0.00 0.02 0.01 41 1011.2
20210622002004 63 298 5.0 9.0 0.00 0.02 0.01 41 1011.3
20210622001004 63 271 3.0 12.0 0.00 0.02 0.01 39 1011.3
20210622000004 63 317 5.0 13.0 0.00 0.02 0.01 38 1011.3